| time (UTC) | temp F | wind direction | speed MPH | gust MPH | rain 1hr in | rain 24hr in | rain mn in | humidity % | barometer mb |
| 20260507191514 | 76 | 327 | 9.0 | 16.0 | 0.00 | 0.00 | 0.00 | 57 | 1007.0 |
| 20260507191002 | 76 | 323 | 5.0 | 15.0 | 0.00 | 0.00 | 0.00 | 57 | 1007.0 |
| 20260507190506 | 76 | 24 | 3.0 | 12.0 | 0.00 | 0.00 | 0.00 | 58 | 1007.1 |
| 20260507190022 | 76 | 326 | 4.0 | 11.0 | 0.00 | 0.00 | 0.00 | 57 | 1007.0 |
| 20260507185507 | 77 | 41 | 5.0 | 13.0 | 0.00 | 0.00 | 0.00 | 56 | 1006.9 |
| 20260507185006 | 77 | 302 | 3.0 | 16.0 | 0.00 | 0.00 | 0.00 | 56 | 1006.7 |
| 20260507184521 | 77 | 41 | 5.0 | 20.0 | 0.00 | 0.00 | 0.00 | 55 | 1006.7 |
| 20260507184007 | 77 | 332 | 10.0 | 20.0 | 0.00 | 0.00 | 0.00 | 55 | 1006.6 |
| 20260507183510 | 77 | 303 | 9.0 | 26.0 | 0.00 | 0.00 | 0.00 | 55 | 1006.4 |
| 20260507183023 | 77 | 312 | 14.0 | 26.0 | 0.00 | 0.00 | 0.00 | 53 | 1006.3 |
| 20260507182503 | 77 | 351 | 12.0 | 23.0 | 0.00 | 0.00 | 0.00 | 53 | 1006.1 |
| 20260507182004 | 77 | 323 | 10.0 | 23.0 | 0.00 | 0.00 | 0.00 | 54 | 1005.9 |
| 20260507181515 | 78 | 317 | 11.0 | 21.0 | 0.00 | 0.00 | 0.00 | 53 | 1005.9 |
| 20260507181004 | 78 | 358 | 10.0 | 25.0 | 0.00 | 0.00 | 0.00 | 53 | 1006.0 |
| 20260507180504 | 78 | 359 | 7.0 | 25.0 | 0.00 | 0.00 | 0.00 | 54 | 1006.1 |
| 20260507180015 | 78 | 326 | 8.0 | 22.0 | 0.00 | 0.00 | 0.00 | 53 | 1006.2 |
| 20260507175508 | 78 | 295 | 8.0 | 16.0 | 0.00 | 0.00 | 0.00 | 53 | 1006.1 |
| 20260507175005 | 78 | 19 | 6.0 | 19.0 | 0.00 | 0.00 | 0.00 | 53 | 1006.3 |
| 20260507174539 | 77 | 336 | 8.0 | 19.0 | 0.00 | 0.00 | 0.00 | 53 | 1006.3 |
| 20260507174011 | 77 | 295 | 7.0 | 24.0 | 0.00 | 0.00 | 0.00 | 54 | 1006.3 |
| 20260507173512 | 78 | 39 | 9.0 | 25.0 | 0.00 | 0.00 | 0.00 | 53 | 1006.5 |
| 20260507173025 | 78 | 306 | 12.0 | 25.0 | 0.00 | 0.00 | 0.00 | 54 | 1006.5 |
| 20260507172506 | 78 | 300 | 7.0 | 17.0 | 0.00 | 0.00 | 0.00 | 54 | 1006.5 |
| 20260507172015 | 78 | 359 | 6.0 | 16.0 | 0.00 | 0.00 | 0.00 | 54 | 1006.6 |
| 20260507171539 | 78 | 142 | 4.0 | 17.0 | 0.00 | 0.00 | 0.00 | 54 | 1006.5 |
| 20260507171003 | 78 | 323 | 10.0 | 21.0 | 0.00 | 0.00 | 0.00 | 53 | 1006.5 |
| 20260507170503 | 78 | 337 | 12.0 | 21.0 | 0.00 | 0.00 | 0.00 | 53 | 1006.6 |
| 20260507170012 | 78 | 333 | 10.0 | 21.0 | 0.00 | 0.00 | 0.00 | 54 | 1006.6 |
| 20260507165508 | 78 | 25 | 9.0 | 20.0 | 0.00 | 0.00 | 0.00 | 54 | 1006.8 |
| 20260507165005 | 78 | 296 | 8.0 | 18.0 | 0.00 | 0.00 | 0.00 | 55 | 1006.9 |
| 20260507164514 | 78 | 343 | 5.0 | 20.0 | 0.00 | 0.00 | 0.00 | 56 | 1006.9 |
| 20260507164005 | 78 | 300 | 11.0 | 20.0 | 0.00 | 0.00 | 0.00 | 55 | 1007.1 |
| 20260507163505 | 78 | 303 | 6.0 | 19.0 | 0.00 | 0.00 | 0.00 | 55 | 1007.3 |
| 20260507163023 | 78 | 317 | 9.0 | 19.0 | 0.00 | 0.00 | 0.00 | 55 | 1007.4 |
| 20260507162506 | 79 | 4 | 10.0 | 25.0 | 0.00 | 0.00 | 0.00 | 56 | 1007.3 |
| 20260507162008 | 79 | 322 | 9.0 | 25.0 | 0.00 | 0.00 | 0.00 | 56 | 1007.4 |
| 20260507161526 | 79 | 38 | 8.0 | 25.0 | 0.00 | 0.00 | 0.00 | 56 | 1007.2 |
| 20260507161010 | 79 | 7 | 10.0 | 25.0 | 0.00 | 0.00 | 0.00 | 57 | 1007.4 |
| 20260507160508 | 79 | 322 | 11.0 | 22.0 | 0.00 | 0.00 | 0.00 | 57 | 1007.4 |
| 20260507160030 | 79 | 311 | 13.0 | 23.0 | 0.00 | 0.00 | 0.00 | 57 | 1007.4 |
| 20260507155504 | 79 | 326 | 9.0 | 23.0 | 0.00 | 0.00 | 0.00 | 58 | 1007.5 |
| 20260507155004 | 79 | 19 | 8.0 | 19.0 | 0.00 | 0.00 | 0.00 | 57 | 1007.5 |
| 20260507154518 | 78 | 316 | 8.0 | 26.0 | 0.00 | 0.00 | 0.00 | 58 | 1007.9 |
| 20260507154009 | 78 | 298 | 9.0 | 26.0 | 0.00 | 0.00 | 0.00 | 59 | 1007.9 |
| 20260507153511 | 78 | 18 | 12.0 | 22.0 | 0.00 | 0.00 | 0.00 | 60 | 1007.8 |
| 20260507153025 | 78 | 293 | 11.0 | 28.0 | 0.00 | 0.00 | 0.00 | 62 | 1008.0 |
| 20260507152503 | 77 | 314 | 12.0 | 28.0 | 0.00 | 0.00 | 0.00 | 62 | 1008.0 |
| 20260507152001 | 78 | 14 | 13.0 | 23.0 | 0.00 | 0.00 | 0.00 | 62 | 1007.9 |
| 20260507151508 | 78 | 345 | 10.0 | 24.0 | 0.00 | 0.00 | 0.00 | 63 | 1008.1 |
| 20260507151003 | 77 | 14 | 9.0 | 25.0 | 0.00 | 0.00 | 0.00 | 63 | 1008.2 |
| 20260507150503 | 77 | 359 | 11.0 | 25.0 | 0.00 | 0.00 | 0.00 | 64 | 1008.1 |
| 20260507150008 | 76 | 316 | 9.0 | 21.0 | 0.00 | 0.00 | 0.00 | 65 | 1008.3 |
| 20260507145507 | 76 | 6 | 8.0 | 18.0 | 0.00 | 0.00 | 0.00 | 67 | 1008.4 |
| 20260507145006 | 76 | 345 | 6.0 | 20.0 | 0.00 | 0.00 | 0.00 | 66 | 1008.6 |
| 20260507144506 | 75 | 300 | 5.0 | 20.0 | 0.00 | 0.00 | 0.00 | 68 | 1008.9 |
| 20260507144006 | 75 | 346 | 12.0 | 20.0 | 0.00 | 0.00 | 0.00 | 69 | 1009.0 |
| 20260507143503 | 74 | 340 | 6.0 | 17.0 | 0.00 | 0.00 | 0.00 | 71 | 1009.3 |
| 20260507143008 | 74 | 325 | 8.0 | 17.0 | 0.00 | 0.00 | 0.00 | 71 | 1009.5 |
| 20260507142506 | 73 | 35 | 9.0 | 17.0 | 0.00 | 0.00 | 0.00 | 71 | 1009.6 |
| 20260507142003 | 73 | 290 | 6.0 | 24.0 | 0.00 | 0.00 | 0.00 | 71 | 1009.8 |
| 20260507141508 | 74 | 297 | 7.0 | 24.0 | 0.00 | 0.00 | 0.00 | 71 | 1009.9 |
| 20260507141003 | 74 | 36 | 6.0 | 24.0 | 0.00 | 0.00 | 0.00 | 69 | 1010.1 |
| 20260507140503 | 74 | 16 | 6.0 | 14.0 | 0.00 | 0.00 | 0.00 | 71 | 1010.2 |
| 20260507140017 | 73 | 27 | 6.0 | 16.0 | 0.00 | 0.00 | 0.00 | 71 | 1010.3 |
| 20260507135504 | 73 | 326 | 5.0 | 21.0 | 0.00 | 0.00 | 0.00 | 73 | 1010.4 |
| 20260507135007 | 72 | 320 | 9.0 | 21.0 | 0.00 | 0.00 | 0.00 | 72 | 1010.6 |
| 20260507134508 | 72 | 19 | 10.0 | 20.0 | 0.00 | 0.00 | 0.00 | 73 | 1010.4 |
| 20260507134004 | 72 | 285 | 7.0 | 16.0 | 0.00 | 0.00 | 0.00 | 73 | 1010.5 |
| 20260507133504 | 72 | 19 | 8.0 | 19.0 | 0.00 | 0.00 | 0.00 | 74 | 1010.5 |
| 20260507133010 | 72 | 313 | 5.0 | 19.0 | 0.00 | 0.00 | 0.00 | 74 | 1010.8 |
| 20260507132504 | 72 | 312 | 9.0 | 17.0 | 0.00 | 0.00 | 0.00 | 73 | 1010.7 |
| 20260507132003 | 72 | 287 | 7.0 | 20.0 | 0.00 | 0.00 | 0.00 | 74 | 1010.7 |
| 20260507131508 | 72 | 307 | 9.0 | 20.0 | 0.00 | 0.00 | 0.00 | 73 | 1010.9 |
| 20260507131007 | 72 | 308 | 8.0 | 22.0 | 0.00 | 0.00 | 0.00 | 73 | 1010.9 |
| 20260507130503 | 72 | 39 | 11.0 | 25.0 | 0.00 | 0.00 | 0.00 | 73 | 1010.9 |
| 20260507130009 | 72 | 320 | 8.0 | 25.0 | 0.00 | 0.00 | 0.00 | 74 | 1011.0 |
| 20260507125506 | 72 | 27 | 12.0 | 19.0 | 0.00 | 0.00 | 0.00 | 74 | 1010.8 |
| 20260507125004 | 72 | 326 | 10.0 | 20.0 | 0.00 | 0.00 | 0.00 | 74 | 1010.8 |
| 20260507124511 | 72 | 303 | 9.0 | 22.0 | 0.00 | 0.00 | 0.00 | 74 | 1010.8 |
| 20260507124003 | 72 | 359 | 9.0 | 22.0 | 0.00 | 0.00 | 0.00 | 74 | 1010.8 |
| 20260507123505 | 71 | 347 | 11.0 | 19.0 | 0.00 | 0.00 | 0.00 | 75 | 1010.9 |
| 20260507123006 | 71 | 39 | 10.0 | 22.0 | 0.00 | 0.00 | 0.00 | 75 | 1011.1 |
| 20260507122503 | 72 | 18 | 7.0 | 22.0 | 0.00 | 0.00 | 0.00 | 74 | 1011.2 |
| 20260507122004 | 72 | 306 | 8.0 | 22.0 | 0.00 | 0.00 | 0.00 | 74 | 1011.2 |
| 20260507121509 | 72 | 333 | 9.0 | 26.0 | 0.00 | 0.00 | 0.00 | 73 | 1010.8 |
| 20260507121004 | 72 | 300 | 10.0 | 26.0 | 0.00 | 0.00 | 0.00 | 73 | 1010.9 |
| 20260507120504 | 72 | 8 | 11.0 | 27.0 | 0.00 | 0.00 | 0.00 | 73 | 1011.0 |
| 20260507120025 | 72 | 352 | 11.0 | 27.0 | 0.00 | 0.00 | 0.00 | 73 | 1011.2 |
| 20260507115504 | 72 | 24 | 12.0 | 24.0 | 0.00 | 0.00 | 0.00 | 72 | 1011.2 |
| 20260507115003 | 72 | 297 | 14.0 | 24.0 | 0.00 | 0.00 | 0.00 | 73 | 1010.9 |
| 20260507114512 | 72 | 307 | 13.0 | 23.0 | 0.00 | 0.00 | 0.00 | 73 | 1010.9 |
| 20260507114004 | 72 | 305 | 12.0 | 23.0 | 0.00 | 0.00 | 0.00 | 72 | 1011.1 |
| 20260507113506 | 72 | 325 | 13.0 | 28.0 | 0.00 | 0.00 | 0.00 | 71 | 1011.0 |
| 20260507113017 | 73 | 309 | 14.0 | 28.0 | 0.00 | 0.00 | 0.00 | 71 | 1010.9 |
| 20260507112506 | 72 | 6 | 14.0 | 23.0 | 0.00 | 0.00 | 0.00 | 71 | 1010.9 |
| 20260507112004 | 72 | 323 | 9.0 | 20.0 | 0.00 | 0.00 | 0.00 | 72 | 1011.1 |
| 20260507111513 | 72 | 307 | 11.0 | 17.0 | 0.00 | 0.00 | 0.00 | 72 | 1011.0 |
| 20260507111004 | 72 | 296 | 7.0 | 25.0 | 0.00 | 0.00 | 0.00 | 72 | 1011.0 |
| 20260507110503 | 72 | 323 | 13.0 | 25.0 | 0.00 | 0.00 | 0.00 | 71 | 1011.0 |
| 20260507110010 | 72 | 304 | 8.0 | 17.0 | 0.00 | 0.00 | 0.00 | 70 | 1011.3 |
| 20260507105504 | 72 | 314 | 5.0 | 23.0 | 0.00 | 0.00 | 0.00 | 70 | 1011.4 |
| 20260507105003 | 73 | 353 | 8.0 | 23.0 | 0.00 | 0.00 | 0.00 | 70 | 1011.2 |
| 20260507104518 | 72 | 347 | 7.0 | 19.0 | 0.00 | 0.00 | 0.00 | 70 | 1011.1 |
| 20260507104006 | 72 | 347 | 10.0 | 19.0 | 0.00 | 0.00 | 0.00 | 71 | 1011.0 |
| 20260507103506 | 72 | 339 | 11.0 | 23.0 | 0.00 | 0.00 | 0.00 | 71 | 1011.0 |
| 20260507103011 | 72 | 321 | 9.0 | 23.0 | 0.00 | 0.00 | 0.00 | 71 | 1010.9 |
| 20260507102504 | 72 | 344 | 12.0 | 21.0 | 0.00 | 0.00 | 0.00 | 71 | 1010.9 |
| 20260507102006 | 72 | 349 | 9.0 | 21.0 | 0.00 | 0.00 | 0.00 | 72 | 1010.9 |
| 20260507101520 | 72 | 339 | 9.0 | 19.0 | 0.00 | 0.00 | 0.00 | 72 | 1010.9 |
| 20260507101007 | 72 | 352 | 11.0 | 20.0 | 0.00 | 0.00 | 0.00 | 73 | 1011.0 |
| 20260507100503 | 72 | 19 | 8.0 | 20.0 | 0.00 | 0.00 | 0.00 | 73 | 1010.8 |
| 20260507100028 | 72 | 27 | 11.0 | 19.0 | 0.00 | 0.00 | 0.00 | 74 | 1010.8 |
| 20260507095506 | 71 | 308 | 12.0 | 20.0 | 0.00 | 0.00 | 0.00 | 75 | 1010.7 |
| 20260507095004 | 71 | 335 | 8.0 | 24.0 | 0.00 | 0.00 | 0.00 | 76 | 1010.9 |
| 20260507094510 | 71 | 22 | 12.0 | 24.0 | 0.00 | 0.00 | 0.00 | 76 | 1010.9 |
| 20260507094003 | 71 | 13 | 9.0 | 23.0 | 0.00 | 0.00 | 0.00 | 76 | 1010.8 |
| 20260507093504 | 71 | 330 | 12.0 | 23.0 | 0.00 | 0.00 | 0.00 | 76 | 1011.0 |
| 20260507093014 | 71 | 14 | 8.0 | 23.0 | 0.00 | 0.00 | 0.00 | 77 | 1011.0 |
| 20260507092509 | 71 | 27 | 6.0 | 18.0 | 0.00 | 0.00 | 0.00 | 76 | 1011.0 |
| 20260507092008 | 71 | 315 | 6.0 | 14.0 | 0.00 | 0.00 | 0.00 | 76 | 1011.0 |
| 20260507091513 | 71 | 10 | 6.0 | 19.0 | 0.00 | 0.00 | 0.00 | 76 | 1011.2 |
| 20260507091004 | 71 | 322 | 8.0 | 20.0 | 0.00 | 0.00 | 0.00 | 76 | 1011.3 |
| 20260507090510 | 71 | 344 | 9.0 | 20.0 | 0.00 | 0.00 | 0.00 | 76 | 1011.1 |
| 20260507090015 | 71 | 4 | 8.0 | 19.0 | 0.00 | 0.00 | 0.00 | 77 | 1011.3 |
| 20260507085504 | 71 | 307 | 6.0 | 16.0 | 0.00 | 0.00 | 0.00 | 76 | 1011.1 |
| 20260507085005 | 71 | 345 | 9.0 | 16.0 | 0.00 | 0.00 | 0.00 | 76 | 1011.3 |
| 20260507084530 | 71 | 359 | 5.0 | 14.0 | 0.00 | 0.00 | 0.00 | 76 | 1011.4 |
| 20260507084004 | 71 | 352 | 7.0 | 14.0 | 0.00 | 0.00 | 0.00 | 75 | 1011.4 |
| 20260507083506 | 71 | 35 | 7.0 | 16.0 | 0.00 | 0.00 | 0.00 | 75 | 1011.6 |
| 20260507083021 | 71 | 342 | 9.0 | 19.0 | 0.00 | 0.00 | 0.00 | 75 | 1011.5 |
| 20260507082504 | 71 | 67 | 6.0 | 19.0 | 0.00 | 0.00 | 0.00 | 75 | 1011.8 |
| 20260507082003 | 72 | 21 | 7.0 | 19.0 | 0.00 | 0.00 | 0.00 | 74 | 1011.8 |
| 20260507081514 | 72 | 15 | 7.0 | 17.0 | 0.00 | 0.00 | 0.00 | 74 | 1011.9 |
| 20260507081010 | 72 | 15 | 6.0 | 17.0 | 0.00 | 0.00 | 0.00 | 74 | 1011.9 |
| 20260507080505 | 72 | 316 | 7.0 | 23.0 | 0.00 | 0.00 | 0.00 | 74 | 1011.9 |
| 20260507080016 | 72 | 352 | 7.0 | 23.0 | 0.00 | 0.00 | 0.00 | 74 | 1011.8 |
| 20260507075503 | 72 | 347 | 4.0 | 14.0 | 0.00 | 0.00 | 0.00 | 74 | 1011.9 |
| 20260507075008 | 72 | 323 | 6.0 | 18.0 | 0.00 | 0.00 | 0.00 | 74 | 1011.9 |
| 20260507074516 | 72 | 313 | 6.0 | 18.0 | 0.00 | 0.00 | 0.00 | 75 | 1012.1 |
| 20260507074005 | 72 | 330 | 5.0 | 18.0 | 0.00 | 0.00 | 0.00 | 74 | 1012.0 |
| 20260507073505 | 72 | 326 | 6.0 | 18.0 | 0.00 | 0.00 | 0.00 | 74 | 1011.9 |
| 20260507073014 | 72 | 4 | 8.0 | 18.0 | 0.00 | 0.00 | 0.00 | 74 | 1011.9 |
| 20260507072509 | 72 | 356 | 9.0 | 21.0 | 0.00 | 0.00 | 0.00 | 74 | 1011.8 |
| 20260507072003 | 72 | 309 | 9.0 | 21.0 | 0.00 | 0.00 | 0.00 | 74 | 1011.9 |
| 20260507071518 | 71 | 308 | 10.0 | 17.0 | 0.00 | 0.00 | 0.00 | 74 | 1011.9 |
| 20260507071008 | 71 | 319 | 10.0 | 17.0 | 0.00 | 0.00 | 0.00 | 74 | 1011.8 |
| 20260507070507 | 71 | 324 | 9.0 | 17.0 | 0.00 | 0.00 | 0.00 | 74 | 1011.8 |
| 20260507070021 | 71 | 32 | 9.0 | 17.0 | 0.00 | 0.00 | 0.00 | 73 | 1011.9 |
| 20260507065505 | 72 | 320 | 10.0 | 17.0 | 0.00 | 0.00 | 0.00 | 73 | 1011.9 |
| 20260507065006 | 72 | 324 | 10.0 | 17.0 | 0.00 | 0.00 | 0.00 | 73 | 1012.1 |
| 20260507064518 | 72 | 330 | 10.0 | 18.0 | 0.00 | 0.00 | 0.00 | 72 | 1012.2 |
| 20260507064006 | 72 | 342 | 9.0 | 18.0 | 0.00 | 0.00 | 0.00 | 72 | 1012.2 |
| 20260507063506 | 72 | 337 | 10.0 | 20.0 | 0.00 | 0.00 | 0.00 | 72 | 1012.3 |
| 20260507063017 | 72 | 319 | 8.0 | 20.0 | 0.00 | 0.00 | 0.00 | 72 | 1012.2 |
| 20260507062505 | 72 | 11 | 9.0 | 18.0 | 0.00 | 0.00 | 0.00 | 72 | 1012.6 |
| 20260507062006 | 72 | 15 | 7.0 | 18.0 | 0.00 | 0.00 | 0.00 | 72 | 1012.5 |
| 20260507061520 | 72 | 8 | 12.0 | 24.0 | 0.00 | 0.00 | 0.00 | 72 | 1012.7 |
| 20260507061010 | 72 | 328 | 9.0 | 24.0 | 0.00 | 0.00 | 0.00 | 72 | 1012.9 |
| 20260507060507 | 72 | 311 | 8.0 | 19.0 | 0.00 | 0.00 | 0.00 | 72 | 1012.8 |
| 20260507060031 | 72 | 312 | 7.0 | 26.0 | 0.00 | 0.00 | 0.00 | 72 | 1013.0 |
| 20260507055508 | 72 | 322 | 7.0 | 26.0 | 0.00 | 0.00 | 0.00 | 72 | 1013.1 |
| 20260507055007 | 72 | 305 | 9.0 | 18.0 | 0.00 | 0.00 | 0.00 | 72 | 1013.0 |
| 20260507054532 | 72 | 322 | 8.0 | 16.0 | 0.00 | 0.00 | 0.00 | 72 | 1013.2 |
| 20260507054007 | 72 | 345 | 9.0 | 18.0 | 0.00 | 0.00 | 0.00 | 72 | 1013.2 |
| 20260507053507 | 72 | 323 | 9.0 | 20.0 | 0.00 | 0.00 | 0.00 | 73 | 1013.2 |
| 20260507053020 | 71 | 359 | 11.0 | 20.0 | 0.00 | 0.00 | 0.00 | 73 | 1013.3 |
| 20260507052506 | 71 | 328 | 10.0 | 17.0 | 0.00 | 0.00 | 0.00 | 74 | 1013.2 |
| 20260507052007 | 71 | 342 | 9.0 | 15.0 | 0.00 | 0.00 | 0.00 | 74 | 1013.5 |
| 20260507051520 | 71 | 321 | 7.0 | 23.0 | 0.00 | 0.00 | 0.00 | 74 | 1013.6 |
| 20260507051009 | 72 | 347 | 8.0 | 23.0 | 0.00 | 0.00 | 0.00 | 74 | 1013.7 |
| 20260507050505 | 72 | 319 | 9.0 | 22.0 | 0.00 | 0.00 | 0.00 | 74 | 1013.8 |
| 20260507050043 | 72 | 18 | 10.0 | 22.0 | 0.00 | 0.00 | 0.00 | 74 | 1013.9 |
| 20260507045508 | 71 | 319 | 10.0 | 18.0 | 0.00 | 0.00 | 0.00 | 74 | 1013.9 |
| 20260507045007 | 71 | 288 | 10.0 | 18.0 | 0.00 | 0.00 | 0.00 | 74 | 1014.0 |
| 20260507044524 | 72 | 344 | 10.0 | 18.0 | 0.00 | 0.00 | 0.00 | 74 | 1014.1 |
| 20260507044007 | 72 | 334 | 10.0 | 19.0 | 0.00 | 0.00 | 0.00 | 74 | 1014.3 |
| 20260507043507 | 72 | 326 | 11.0 | 19.0 | 0.00 | 0.00 | 0.00 | 73 | 1014.4 |
| 20260507043021 | 72 | 316 | 9.0 | 17.0 | 0.00 | 0.00 | 0.00 | 73 | 1014.4 |
| 20260507042509 | 72 | 326 | 8.0 | 15.0 | 0.00 | 0.00 | 0.00 | 73 | 1014.6 |
| 20260507042003 | 72 | 346 | 8.0 | 17.0 | 0.00 | 0.00 | 0.00 | 73 | 1014.6 |
| 20260507041513 | 72 | 295 | 6.0 | 17.0 | 0.00 | 0.00 | 0.00 | 73 | 1014.7 |
| 20260507041003 | 72 | 309 | 9.0 | 17.0 | 0.00 | 0.00 | 0.00 | 73 | 1014.9 |
| 20260507040506 | 72 | 318 | 7.0 | 15.0 | 0.00 | 0.00 | 0.00 | 73 | 1014.9 |
| 20260507040021 | 72 | 359 | 6.0 | 14.0 | 0.00 | 0.00 | 0.00 | 74 | 1015.0 |
| 20260507035505 | 72 | 314 | 5.0 | 14.0 | 0.00 | 0.00 | 0.00 | 74 | 1015.0 |
| 20260507035007 | 72 | 9 | 8.0 | 14.0 | 0.00 | 0.00 | 0.00 | 74 | 1015.2 |
| 20260507034529 | 72 | 321 | 5.0 | 14.0 | 0.00 | 0.00 | 0.00 | 74 | 1015.3 |
| 20260507034013 | 72 | 31 | 6.0 | 14.0 | 0.00 | 0.00 | 0.00 | 74 | 1015.4 |
| 20260507033507 | 72 | 323 | 6.0 | 14.0 | 0.00 | 0.00 | 0.00 | 74 | 1015.4 |
| 20260507033004 | 72 | 304 | 6.0 | 14.0 | 0.00 | 0.00 | 0.00 | 75 | 1015.5 |
| 20260507032504 | 72 | 17 | 6.0 | 11.0 | 0.00 | 0.00 | 0.00 | 75 | 1015.5 |
| 20260507032003 | 72 | 330 | 5.0 | 10.0 | 0.00 | 0.00 | 0.00 | 75 | 1015.6 |
| 20260507031508 | 72 | 335 | 4.0 | 14.0 | 0.00 | 0.00 | 0.00 | 75 | 1015.6 |
| 20260507031004 | 72 | 29 | 6.0 | 14.0 | 0.00 | 0.00 | 0.00 | 75 | 1015.8 |
| 20260507030504 | 72 | 300 | 7.0 | 19.0 | 0.00 | 0.00 | 0.00 | 75 | 1015.9 |
| 20260507030013 | 72 | 3 | 9.0 | 19.0 | 0.00 | 0.00 | 0.00 | 75 | 1015.9 |
| 20260507025509 | 72 | 326 | 6.0 | 11.0 | 0.00 | 0.00 | 0.00 | 75 | 1016.1 |
| 20260507025008 | 72 | 4 | 6.0 | 11.0 | 0.00 | 0.00 | 0.00 | 75 | 1016.0 |
| 20260507024520 | 72 | 330 | 4.0 | 12.0 | 0.00 | 0.00 | 0.00 | 74 | 1016.1 |
| 20260507024009 | 72 | 1 | 5.0 | 12.0 | 0.00 | 0.00 | 0.00 | 74 | 1016.2 |
| 20260507023509 | 72 | 6 | 4.0 | 10.0 | 0.00 | 0.00 | 0.00 | 74 | 1016.3 |
| 20260507023021 | 72 | 340 | 4.0 | 10.0 | 0.00 | 0.00 | 0.00 | 74 | 1016.4 |
| 20260507022509 | 72 | 37 | 5.0 | 12.0 | 0.00 | 0.00 | 0.00 | 74 | 1016.4 |
| 20260507022009 | 72 | 322 | 4.0 | 12.0 | 0.00 | 0.00 | 0.00 | 74 | 1016.4 |
| 20260507021515 | 72 | 18 | 6.0 | 12.0 | 0.00 | 0.00 | 0.00 | 73 | 1016.5 |
| 20260507021004 | 71 | 309 | 4.0 | 10.0 | 0.00 | 0.00 | 0.00 | 74 | 1016.6 |
| 20260507020504 | 71 | 342 | 4.0 | 8.0 | 0.00 | 0.00 | 0.00 | 74 | 1016.7 |
| 20260507020019 | 71 | 356 | 4.0 | 8.0 | 0.00 | 0.00 | 0.00 | 74 | 1016.7 |
| 20260507015506 | 70 | 1 | 5.0 | 8.0 | 0.00 | 0.00 | 0.00 | 75 | 1016.7 |
| 20260507015004 | 70 | 323 | 5.0 | 9.0 | 0.00 | 0.00 | 0.00 | 76 | 1016.8 |
| 20260507014520 | 70 | 351 | 6.0 | 9.0 | 0.00 | 0.00 | 0.00 | 77 | 1016.8 |
| 20260507014005 | 70 | 323 | 5.0 | 8.0 | 0.00 | 0.00 | 0.00 | 78 | 1016.8 |
| 20260507013506 | 70 | 314 | 5.0 | 8.0 | 0.00 | 0.00 | 0.00 | 77 | 1016.8 |
| 20260507013018 | 70 | 7 | 5.0 | 7.0 | 0.00 | 0.00 | 0.00 | 77 | 1016.8 |
| 20260507012506 | 70 | 335 | 4.0 | 7.0 | 0.00 | 0.00 | 0.00 | 78 | 1016.8 |
| 20260507012009 | 70 | 1 | 4.0 | 7.0 | 0.00 | 0.00 | 0.00 | 78 | 1016.9 |
| 20260507011530 | 70 | 324 | 4.0 | 9.0 | 0.00 | 0.00 | 0.00 | 78 | 1016.9 |
| 20260507011007 | 70 | 320 | 5.0 | 9.0 | 0.00 | 0.00 | 0.00 | 78 | 1017.0 |
| 20260507010510 | 70 | 352 | 5.0 | 9.0 | 0.00 | 0.00 | 0.00 | 77 | 1017.0 |
| 20260507010018 | 70 | 334 | 5.0 | 9.0 | 0.00 | 0.00 | 0.00 | 78 | 1016.9 |
| 20260507005503 | 70 | 328 | 6.0 | 8.0 | 0.00 | 0.00 | 0.00 | 78 | 1017.0 |
| 20260507005007 | 70 | 301 | 5.0 | 9.0 | 0.00 | 0.00 | 0.00 | 78 | 1017.0 |
| 20260507004519 | 71 | 321 | 5.0 | 10.0 | 0.00 | 0.00 | 0.00 | 77 | 1017.0 |
| 20260507004004 | 71 | 330 | 6.0 | 10.0 | 0.00 | 0.00 | 0.00 | 76 | 1017.2 |
| 20260507003508 | 71 | 311 | 6.0 | 10.0 | 0.00 | 0.00 | 0.00 | 77 | 1017.3 |
| 20260507003016 | 71 | 358 | 5.0 | 10.0 | 0.00 | 0.00 | 0.00 | 76 | 1017.2 |
| 20260507002504 | 71 | 342 | 6.0 | 11.0 | 0.00 | 0.00 | 0.00 | 75 | 1017.3 |
| 20260507002006 | 71 | 331 | 8.0 | 11.0 | 0.00 | 0.00 | 0.00 | 75 | 1017.4 |
| 20260507001522 | 71 | 323 | 6.0 | 9.0 | 0.00 | 0.00 | 0.00 | 76 | 1017.4 |
| 20260507001008 | 71 | 311 | 5.0 | 10.0 | 0.00 | 0.00 | 0.00 | 76 | 1017.5 |
| 20260507000512 | 71 | 323 | 6.0 | 10.0 | 0.00 | 0.00 | 0.00 | 76 | 1017.4 |
| 20260507000032 | 71 | 316 | 6.0 | 9.0 | 0.00 | 0.00 | 0.00 | 74 | 1017.4 |
| 20260506235507 | 71 | 322 | 6.0 | 9.0 | 0.00 | 0.00 | 0.00 | 76 | 1017.4 |
| 20260506235011 | 70 | 307 | 7.0 | 9.0 | 0.00 | 0.00 | 0.00 | 78 | 1017.4 |
| 20260506234507 | 70 | 331 | 5.0 | 9.0 | 0.00 | 0.00 | 0.00 | 79 | 1017.3 |
| 20260506234004 | 70 | 319 | 5.0 | 10.0 | 0.00 | 0.00 | 0.00 | 78 | 1017.4 |
| 20260506233504 | 70 | 313 | 6.0 | 10.0 | 0.00 | 0.00 | 0.00 | 78 | 1017.5 |
| 20260506233014 | 70 | 310 | 5.0 | 9.0 | 0.00 | 0.00 | 0.00 | 79 | 1017.5 |
| 20260506232503 | 70 | 319 | 6.0 | 9.0 | 0.00 | 0.00 | 0.00 | 80 | 1017.4 |
| 20260506232008 | 70 | 305 | 5.0 | 7.0 | 0.00 | 0.00 | 0.00 | 80 | 1017.4 |
| 20260506231524 | 70 | 333 | 5.0 | 10.0 | 0.00 | 0.00 | 0.00 | 79 | 1017.4 |
| 20260506231007 | 70 | 328 | 5.0 | 10.0 | 0.00 | 0.00 | 0.00 | 79 | 1017.4 |
| 20260506230506 | 70 | 360 | 6.0 | 10.0 | 0.00 | 0.00 | 0.00 | 80 | 1017.3 |
| 20260506230026 | 70 | 335 | 5.0 | 9.0 | 0.00 | 0.00 | 0.00 | 81 | 1017.3 |
| 20260506225511 | 69 | 345 | 6.0 | 9.0 | 0.00 | 0.00 | 0.00 | 80 | 1017.3 |
| 20260506225008 | 69 | 340 | 4.0 | 7.0 | 0.00 | 0.00 | 0.00 | 82 | 1017.3 |
| 20260506224523 | 69 | 349 | 5.0 | 7.0 | 0.00 | 0.00 | 0.00 | 82 | 1017.3 |
| 20260506224007 | 69 | 319 | 5.0 | 7.0 | 0.00 | 0.00 | 0.00 | 82 | 1017.3 |
| 20260506223511 | 69 | 323 | 5.0 | 7.0 | 0.00 | 0.00 | 0.00 | 82 | 1017.4 |
| 20260506223016 | 69 | 335 | 5.0 | 9.0 | 0.00 | 0.00 | 0.00 | 82 | 1017.5 |
| 20260506222506 | 70 | 323 | 5.0 | 9.0 | 0.00 | 0.00 | 0.00 | 81 | 1017.5 |
| 20260506222013 | 69 | 354 | 6.0 | 9.0 | 0.00 | 0.00 | 0.00 | 81 | 1017.5 |
| 20260506221514 | 69 | 335 | 5.0 | 9.0 | 0.00 | 0.00 | 0.00 | 82 | 1017.5 |
| 20260506221007 | 70 | 343 | 5.0 | 9.0 | 0.00 | 0.00 | 0.00 | 81 | 1017.5 |
| 20260506220504 | 69 | 335 | 6.0 | 9.0 | 0.00 | 0.00 | 0.00 | 83 | 1017.5 |
| 20260506220029 | 69 | 318 | 5.0 | 7.0 | 0.00 | 0.00 | 0.00 | 82 | 1017.6 |
| 20260506215506 | 69 | 326 | 5.0 | 7.0 | 0.00 | 0.00 | 0.00 | 84 | 1017.6 |
| 20260506215012 | 69 | 346 | 5.0 | 6.0 | 0.00 | 0.00 | 0.00 | 83 | 1017.6 |
| 20260506214522 | 69 | 345 | 5.0 | 7.0 | 0.00 | 0.00 | 0.00 | 84 | 1017.5 |
| 20260506214008 | 69 | 3 | 5.0 | 7.0 | 0.00 | 0.00 | 0.00 | 84 | 1017.4 |
| 20260506213510 | 69 | 333 | 5.0 | 7.0 | 0.00 | 0.00 | 0.00 | 84 | 1017.4 |
| 20260506213030 | 70 | 359 | 5.0 | 7.0 | 0.00 | 0.00 | 0.00 | 84 | 1017.3 |
| 20260506212508 | 70 | 326 | 5.0 | 8.0 | 0.00 | 0.00 | 0.00 | 83 | 1017.4 |
| 20260506212011 | 70 | 345 | 5.0 | 8.0 | 0.00 | 0.00 | 0.00 | 84 | 1017.5 |
| 20260506211510 | 70 | 322 | 5.0 | 7.0 | 0.00 | 0.00 | 0.00 | 85 | 1017.4 |
| 20260506211003 | 71 | 333 | 5.0 | 9.0 | 0.00 | 0.00 | 0.00 | 83 | 1017.2 |
| 20260506210505 | 71 | 336 | 5.0 | 9.0 | 0.00 | 0.00 | 0.00 | 81 | 1017.3 |
| 20260506210025 | 71 | 338 | 5.0 | 8.0 | 0.00 | 0.00 | 0.00 | 82 | 1017.4 |
| 20260506205508 | 71 | 359 | 6.0 | 8.0 | 0.00 | 0.00 | 0.00 | 81 | 1017.5 |
| 20260506205008 | 71 | 328 | 5.0 | 7.0 | 0.00 | 0.00 | 0.00 | 84 | 1017.5 |
| 20260506204519 | 71 | 327 | 4.0 | 6.0 | 0.00 | 0.00 | 0.00 | 83 | 1017.4 |
| 20260506204010 | 72 | 333 | 4.0 | 6.0 | 0.00 | 0.00 | 0.00 | 82 | 1017.5 |
| 20260506203511 | 72 | 352 | 4.0 | 6.0 | 0.00 | 0.00 | 0.00 | 82 | 1017.7 |
| 20260506203029 | 73 | 342 | 4.0 | 7.0 | 0.00 | 0.00 | 0.00 | 81 | 1017.6 |
| 20260506202507 | 73 | 332 | 4.0 | 7.0 | 0.00 | 0.00 | 0.00 | 80 | 1017.5 |
| 20260506202012 | 74 | 335 | 4.0 | 7.0 | 0.00 | 0.00 | 0.00 | 78 | 1017.8 |
| 20260506201532 | 75 | 344 | 4.0 | 7.0 | 0.00 | 0.00 | 0.00 | 76 | 1017.8 |
| 20260506201009 | 76 | 325 | 4.0 | 7.0 | 0.00 | 0.00 | 0.00 | 74 | 1017.8 |
| 20260506200509 | 76 | 327 | 4.0 | 7.0 | 0.00 | 0.00 | 0.00 | 72 | 1017.9 |
| 20260506200016 | 76 | 335 | 4.0 | 7.0 | 0.00 | 0.00 | 0.00 | 73 | 1017.9 |
| 20260506195508 | 76 | 331 | 4.0 | 7.0 | 0.00 | 0.00 | 0.00 | 74 | 1017.8 |
| 20260506195010 | 77 | 333 | 3.0 | 6.0 | 0.00 | 0.00 | 0.00 | 72 | 1017.9 |
| 20260506194520 | 77 | 316 | 3.0 | 7.0 | 0.00 | 0.00 | 0.00 | 73 | 1017.9 |
| 20260506194006 | 77 | 340 | 3.0 | 7.0 | 0.00 | 0.00 | 0.00 | 71 | 1018.0 |
| 20260506193507 | 78 | 354 | 3.0 | 6.0 | 0.00 | 0.00 | 0.00 | 70 | 1018.0 |
| 20260506193022 | 79 | 2 | 4.0 | 7.0 | 0.00 | 0.00 | 0.00 | 67 | 1018.0 |
| 20260506192508 | 79 | 18 | 5.0 | 7.0 | 0.00 | 0.00 | 0.00 | 66 | 1018.0 |
| 20260506192008 | 79 | 328 | 3.0 | 7.0 | 0.00 | 0.00 | 0.00 | 66 | 1018.0 |